START_TIME,STEP,MOV.,M6,t_acc.,M7,t_acc.,M19,t_acc.,H36,t_acc.
1981-08-28 15:00:27.800 ,3,0,0.,12.0,0.,12.0,0.,12.0,0.,12.0
1981-08-28 15:00:39.800 ,3,0,0.,12.0,0.,12.0,0.,12.0,0.,12.0
1981-08-28 15:00:51.800 ,4,1,0.,12.0,0.,12.0,0.,12.0,0.,12.0
1981-08-28 15:01:03.800 ,4,1,0.,12.0,0.,12.0,0.,12.0,0.,12.0
1981-08-28 15:01:15.800 ,4,0,0.,12.0,0.,12.0,0.,12.0,0.,12.0
1981-08-28 15:01:27.800 ,4,0,0.,12.0,0.,12.0,0.,12.0,0.,12.0
1981-08-28 15:01:39.800 ,5,1,0.,12.0,0.,12.0,0.,12.0,0.,12.0
1981-08-28 15:01:51.800 ,5,1,0.,12.0,0.,12.0,0.,12.0,0.,12.0
1981-08-28 15:02:03.800 ,5,0,0.,12.0,0.,12.0,0.,12.0,0.,12.0
1981-08-28 15:02:15.800 ,5,0,0.,12.0,0.,12.0,0.,12.0,0.,12.0
1981-08-28 15:02:27.800 ,6,1,0.,12.0,0.,12.0,0.,12.0,0.,12.0
1981-08-28 15:02:39.800 ,6,1,0.,12.0,0.,12.0,0.,12.0,0.,12.0
1981-08-28 15:02:51.800 ,6,0,0.,12.0,0.,12.0,0.,12.0,0.,12.0
1981-08-28 15:03:03.800 ,6,0,0.,12.0,0.,12.0,0.,12.0,0.,12.0
1981-08-28 15:03:15.800 ,7,1,0.,12.0,0.,12.0,0.,12.0,0.,12.0
1981-08-28 15:03:27.800 ,7,1,0.,12.0,0.,12.0,0.,12.0,0.,12.0
1981-08-28 15:03:39.800 ,7,0,0.,12.0,0.,12.0,0.,12.0,0.,12.0
1981-08-28 15:03:51.800 ,7,0,0.,12.0,0.,12.0,0.,12.0,0.,12.0
1981-08-28 15:04:03.800 ,7,1,0.,12.0,0.,12.0,0.,12.0,0.,12.0
1981-08-28 15:04:15.800 ,7,1,0.,12.0,0.,12.0,0.,12.0,0.,12.0
1981-08-28 15:04:27.800 ,6,1,0.,12.0,0.,12.0,0.,12.0,0.,12.0
1981-08-28 15:04:39.800 ,6,1,0.,12.0,0.,12.0,0.,12.0,0.,12.0
1981-08-28 15:04:51.800 ,5,1,0.,12.0,0.,12.0,0.,12.0,0.,12.0
1981-08-28 15:05:03.800 ,5,1,0.,12.0,0.,12.0,0.,12.0,0.,12.0
1981-08-28 15:05:15.800 ,4,1,0.,12.0,0.,12.0,0.,12.0,0.,12.0
1981-08-28 15:05:27.800 ,4,1,0.,12.0,0.,12.0,0.,12.0,0.,12.0
1981-08-28 15:05:39.800 ,3,1,0.,12.0,0.,12.0,0.,12.0,0.,12.0
1981-08-28 15:05:51.800 ,3,1,0.,12.0,0.,12.0,0.,12.0,0.,12.0
1981-08-28 15:06:03.800 ,2,1,0.,12.0,0.,12.0,0.,12.0,0.,12.0
1981-08-28 15:06:15.800 ,2,1,0.,12.0,0.,12.0,0.,12.0,0.,12.0
1981-08-28 15:06:27.800 ,1,1,0.,12.0,0.,12.0,0.,12.0,0.,12.0
1981-08-28 15:06:39.800 ,1,1,0.,12.0,0.,12.0,0.,12.0,0.,12.0
1981-08-28 15:06:51.800 ,0,1,0.,12.0,0.,12.0,0.,12.0,0.,12.0
1981-08-28 15:07:03.800 ,0,1,0.,12.0,0.,12.0,0.,12.0,0.,12.0
1981-08-28 15:07:15.800 ,0,1,0.,12.0,0.,12.0,0.,12.0,0.,12.0
1981-08-28 15:07:27.800 ,0,1,0.,12.0,0.,12.0,0.,12.0,0.,12.0
1981-08-28 15:07:39.800 ,1,1,0.,12.0,0.,12.0,0.,12.0,0.,12.0
1981-08-28 15:07:51.800 ,1,1,0.,12.0,0.,12.0,0.,12.0,0.,12.0
1981-08-28 15:08:03.800 ,2,1,0.,12.0,0.,12.0,0.,12.0,0.,12.0
1981-08-28 15:08:15.800 ,2,1,0.,12.0,0.,12.0,0.,12.0,0.,12.0
1981-08-28 15:08:27.800 ,3,1,0.,12.0,0.,12.0,0.,12.0,0.,12.0
1981-08-28 15:08:39.800 ,3,1,0.,12.0,0.,12.0,0.,12.0,0.,12.0
1981-08-28 15:08:51.800 ,4,1,0.,12.0,0.,12.0,0.,12.0,0.,12.0
1981-08-28 15:09:03.800 ,4,1,0.,12.0,0.,12.0,0.,12.0,0.,12.0
1981-08-28 15:09:15.800 ,5,1,0.,12.0,0.,12.0,0.,12.0,0.,12.0
1981-08-28 15:09:27.800 ,5,1,0.,12.0,0.,12.0,0.,12.0,0.,12.0
1981-08-28 15:09:39.800 ,6,1,0.,12.0,0.,12.0,0.,12.0,0.,12.0
1981-08-28 15:09:51.800 ,6,1,0.,12.0,0.,12.0,0.,12.0,0.,12.0
1981-08-28 15:10:03.800 ,7,1,0.,12.0,0.,12.0,0.,12.0,0.,12.0
1981-08-28 15:10:15.800 ,7,1,0.,12.0,0.,12.0,0.,12.0,0.,12.0
1981-08-28 15:10:27.800 ,7,1,0.,12.0,0.,12.0,0.,12.0,0.,12.0
1981-08-28 15:10:39.800 ,7,1,0.,12.0,0.,12.0,0.,12.0,0.,12.0
1981-08-28 15:10:51.800 ,7,0,0.,12.0,0.,12.0,0.,12.0,0.,12.0
1981-08-28 15:11:03.800 ,7,0,0.,12.0,0.,12.0,0.,12.0,0.,12.0
1981-08-28 15:11:15.800 ,6,1,0.,12.0,0.,12.0,0.,12.0,0.,12.0
1981-08-28 15:11:27.800 ,6,1,0.,12.0,0.,12.0,0.,12.0,0.,12.0
1981-08-28 15:11:39.800 ,6,0,0.,12.0,0.,12.0,0.,12.0,0.,12.0
1981-08-28 15:11:51.800 ,6,0,0.,12.0,0.,12.0,0.,12.0,0.,12.0
1981-08-28 15:12:03.800 ,5,1,0.,12.0,0.,12.0,0.,12.0,0.,12.0
1981-08-28 15:12:15.800 ,5,1,0.,12.0,0.,12.0,0.,12.0,0.,12.0
1981-08-28 15:12:27.800 ,5,0,0.,12.0,0.,12.0,0.,12.0,0.,12.0
1981-08-28 15:12:39.800 ,5,0,0.,12.0,0.,12.0,0.,12.0,0.,12.0
1981-08-28 15:12:51.800 ,4,1,0.,12.0,0.,12.0,0.,12.0,0.,12.0
1981-08-28 15:13:03.800 ,4,1,0.,12.0,0.,12.0,0.,12.0,0.,12.0
1981-08-28 15:13:15.800 ,4,0,0.,12.0,0.,12.0,0.,12.0,0.,12.0
1981-08-28 15:13:27.800 ,4,0,0.,12.0,0.,12.0,0.,12.0,0.,12.0
1981-08-28 15:13:39.800 ,3,1,0.,12.0,0.,12.0,0.,12.0,0.,12.0
1981-08-28 15:13:51.800 ,3,1,0.,12.0,0.,12.0,0.,12.0,0.,12.0
1981-08-28 15:14:03.800 ,3,0,0.,12.0,0.,12.0,0.,12.0,0.,12.0
1981-08-28 15:14:15.800 ,3,0,0.,12.0,0.,12.0,0.,12.0,0.,12.0
1981-08-28 15:14:27.800 ,2,1,0.,12.0,0.,12.0,0.,12.0,0.,12.0
1981-08-28 15:14:39.800 ,2,1,0.,12.0,0.,12.0,0.,12.0,0.,12.0
1981-08-28 15:14:51.800 ,2,0,0.,12.0,0.,12.0,0.,12.0,0.,12.0
1981-08-28 15:15:03.800 ,2,0,0.,12.0,0.,12.0,0.,12.0,0.,12.0
1981-08-28 15:15:15.800 ,1,1,0.,12.0,0.,12.0,0.,12.0,0.,12.0
1981-08-28 15:15:27.800 ,1,1,0.,12.0,0.,12.0,0.,12.0,0.,12.0
1981-08-28 15:15:39.800 ,1,0,0.,12.0,0.,12.0,0.,12.0,0.,12.0
1981-08-28 15:15:51.800 ,1,0,0.,12.0,0.,12.0,0.,12.0,0.,12.0
1981-08-28 15:16:51.800 ,0,0,0.,12.0,0.,12.0,0.,12.0,0.,12.0
1981-08-28 15:17:03.800 ,0,0,0.,12.0,0.,12.0,0.,12.0,0.,12.0
1981-08-28 15:17:15.800 ,0,0,0.,12.0,0.,12.0,0.,12.0,0.,12.0
1981-08-28 15:17:27.800 ,0,0,0.,12.0,0.,12.0,0.,12.0,0.,12.0
1981-08-28 15:17:39.800 ,1,1,0.,12.0,0.,12.0,0.,12.0,0.,12.0
1981-08-28 15:17:51.800 ,1,1,0.,12.0,0.,12.0,0.,12.0,0.,12.0
1981-08-28 15:18:03.800 ,1,0,0.,12.0,0.,12.0,0.,12.0,0.,12.0
1981-08-28 15:18:15.800 ,1,0,0.,12.0,0.,12.0,0.,12.0,0.,12.0
1981-08-28 15:18:27.800 ,2,1,0.,12.0,0.,12.0,0.,12.0,0.,12.0
1981-08-28 15:18:39.800 ,2,1,0.,12.0,0.,12.0,0.,12.0,0.,12.0
1981-08-28 15:18:51.800 ,2,0,0.,12.0,0.,12.0,0.,12.0,0.,12.0
1981-08-28 15:19:03.800 ,2,0,0.,12.0,0.,12.0,0.,12.0,0.,12.0
1981-08-28 15:19:15.800 ,3,1,0.,12.0,0.,12.0,0.,12.0,0.,12.0
1981-08-28 15:19:27.800 ,3,1,0.,12.0,0.,12.0,0.,12.0,0.,12.0
1981-08-28 15:19:39.800 ,3,0,0.,12.0,0.,12.0,0.,12.0,0.,12.0
1981-08-28 15:19:51.800 ,3,0,0.,12.0,0.,12.0,0.,12.0,0.,12.0
1981-08-28 15:20:03.800 ,4,1,0.,12.0,0.,12.0,0.,12.0,0.,12.0
1981-08-28 15:20:15.800 ,4,1,0.,12.0,0.,12.0,0.,12.0,0.,12.0
1981-08-28 15:20:27.800 ,4,0,0.,12.0,0.,12.0,0.,12.0,0.,12.0
1981-08-28 15:20:39.800 ,4,0,0.,12.0,0.,12.0,0.,12.0,0.,12.0
1981-08-28 15:20:51.800 ,5,1,0.,12.0,0.,12.0,0.,12.0,0.,12.0
1981-08-28 15:21:03.800 ,5,1,0.,12.0,0.,12.0,0.,12.0,0.,12.0
1981-08-28 15:21:15.800 ,5,0,0.,12.0,0.,12.0,0.,12.0,0.,12.0
1981-08-28 15:21:27.800 ,5,0,0.,12.0,0.,12.0,0.,12.0,0.,12.0
1981-08-28 15:21:39.800 ,6,1,0.,12.0,0.,12.0,0.,12.0,0.,12.0
1981-08-28 15:21:51.800 ,6,1,0.,12.0,0.,12.0,0.,12.0,0.,12.0
1981-08-28 15:22:03.800 ,6,0,0.,12.0,0.,12.0,0.,12.0,0.,12.0
1981-08-28 15:22:15.800 ,6,0,0.,12.0,0.,12.0,0.,12.0,0.,12.0
1981-08-28 15:22:27.800 ,7,1,0.,12.0,0.,12.0,0.,12.0,0.,12.0
1981-08-28 15:22:39.800 ,7,1,0.,12.0,0.,12.0,0.,12.0,0.,12.0
1981-08-28 15:22:51.800 ,7,0,0.,12.0,0.,12.0,0.,12.0,0.,12.0
1981-08-28 15:23:03.800 ,7,0,0.,12.0,0.,12.0,0.,12.0,0.,12.0
1981-08-28 15:23:15.800 ,7,1,0.,12.0,0.,12.0,0.,12.0,0.,12.0
1981-08-28 15:23:27.800 ,7,1,0.,12.0,0.,12.0,0.,12.0,0.,12.0
1981-08-28 15:23:39.800 ,6,1,0.,12.0,0.,12.0,0.,12.0,0.,12.0
1981-08-28 15:23:51.800 ,6,1,0.,12.0,0.,12.0,0.,12.0,0.,12.0
1981-08-28 15:24:03.800 ,5,1,0.,12.0,0.,12.0,0.,12.0,0.,12.0
1981-08-28 15:24:15.800 ,5,1,0.,12.0,0.,12.0,0.,12.0,0.,12.0
1981-08-28 15:24:27.800 ,4,1,0.,12.0,0.,12.0,0.,12.0,0.,12.0
1981-08-28 15:24:39.800 ,4,1,0.,12.0,0.,12.0,0.,12.0,0.,12.0
1981-08-28 15:24:51.800 ,3,1,0.,12.0,0.,12.0,0.,12.0,0.,12.0
1981-08-28 15:25:03.800 ,3,1,0.,12.0,0.,12.0,0.,12.0,0.,12.0
1981-08-28 15:25:15.800 ,2,1,0.,12.0,0.,12.0,0.,12.0,0.,12.0
1981-08-28 15:25:27.800 ,2,1,0.,12.0,0.,12.0,0.,12.0,0.,12.0
1981-08-28 15:25:39.800 ,1,1,0.,12.0,0.,12.0,0.,12.0,0.,12.0
1981-08-28 15:25:51.800 ,1,1,0.,12.0,0.,12.0,0.,12.0,0.,12.0
1981-08-28 15:26:03.800 ,0,1,0.,12.0,0.,12.0,0.,12.0,0.,12.0
1981-08-28 15:26:15.800 ,0,1,0.,12.0,0.,12.0,0.,12.0,0.,12.0
1981-08-28 15:26:27.800 ,0,1,0.,12.0,0.,12.0,0.,12.0,0.,12.0
1981-08-28 15:26:39.800 ,0,1,0.,12.0,0.,12.0,0.,12.0,0.,12.0
1981-08-28 15:26:51.800 ,1,1,0.,12.0,0.,12.0,0.,12.0,0.,12.0
1981-08-28 15:27:03.800 ,1,1,0.,12.0,0.,12.0,0.,12.0,0.,12.0
1981-08-28 15:27:15.800 ,2,1,0.,12.0,0.,12.0,0.,12.0,0.,12.0
1981-08-28 15:27:27.800 ,2,1,0.,12.0,0.,12.0,0.,12.0,0.,12.0
1981-08-28 15:27:39.800 ,3,1,0.,12.0,0.,12.0,0.,12.0,0.,12.0
1981-08-28 15:27:51.800 ,3,1,0.,12.0,0.,12.0,0.,12.0,0.,12.0
1981-08-28 15:28:03.800 ,4,1,0.,12.0,0.,12.0,0.,12.0,0.,12.0
1981-08-28 15:28:15.800 ,4,1,0.,12.0,0.,12.0,0.,12.0,0.,12.0
1981-08-28 15:28:27.800 ,5,1,0.,12.0,0.,12.0,0.,12.0,0.,12.0
1981-08-28 15:28:39.800 ,5,1,0.,12.0,0.,12.0,0.,12.0,0.,12.0
1981-08-28 15:28:51.800 ,6,1,0.,12.0,0.,12.0,0.,12.0,0.,12.0
1981-08-28 15:29:03.800 ,6,1,0.,12.0,0.,12.0,0.,12.0,0.,12.0
1981-08-28 15:29:15.800 ,7,1,0.,12.0,0.,12.0,0.,12.0,0.,12.0
1981-08-28 15:29:27.800 ,7,1,0.,12.0,0.,12.0,0.,12.0,0.,12.0
1981-08-28 15:29:39.800 ,7,1,0.,12.0,0.,12.0,0.,12.0,0.,12.0
1981-08-28 15:29:51.800 ,7,1,0.,12.0,0.,12.0,0.,12.0,0.,12.0
1981-08-28 15:30:03.800 ,7,0,0.,12.0,0.,12.0,0.,12.0,0.,12.0
1981-08-28 15:30:15.800 ,7,0,0.,12.0,0.,12.0,0.,12.0,0.,12.0
1981-08-28 15:30:27.800 ,6,1,0.,12.0,0.,12.0,0.,12.0,0.,12.0
1981-08-28 15:30:39.800 ,6,1,0.,12.0,0.,12.0,0.,12.0,0.,12.0
1981-08-28 15:30:51.800 ,6,0,0.,12.0,0.,12.0,0.,12.0,0.,12.0
1981-08-28 15:31:03.800 ,6,0,0.,12.0,0.,12.0,0.,12.0,0.,12.0
1981-08-28 15:31:15.800 ,5,1,0.,12.0,0.,12.0,0.,12.0,0.,12.0
1981-08-28 15:31:27.800 ,5,1,0.,12.0,0.,12.0,0.,12.0,0.,12.0
1981-08-28 15:31:39.800 ,5,0,0.,12.0,0.,12.0,0.,12.0,0.,12.0
1981-08-28 15:31:51.800 ,5,0,0.,12.0,0.,12.0,0.,12.0,0.,12.0
1981-08-28 15:32:03.800 ,4,1,0.,12.0,0.,12.0,0.,12.0,0.,12.0
1981-08-28 15:32:15.800 ,4,1,0.,12.0,0.,12.0,0.,12.0,0.,12.0
1981-08-28 15:32:27.800 ,4,0,0.,12.0,0.,12.0,0.,12.0,0.,12.0
1981-08-28 15:32:39.800 ,4,0,0.,12.0,0.,12.0,0.,12.0,0.,12.0
1981-08-28 15:32:51.800 ,3,1,0.,12.0,0.,12.0,0.,12.0,0.,12.0
1981-08-28 15:33:03.800 ,3,1,0.,12.0,0.,12.0,0.,12.0,0.,12.0
1981-08-28 15:33:15.800 ,3,0,0.,12.0,0.,12.0,0.,12.0,0.,12.0
1981-08-28 15:33:27.800 ,3,0,0.,12.0,0.,12.0,0.,12.0,0.,12.0
1981-08-28 15:33:39.800 ,2,1,0.,12.0,0.,12.0,0.,12.0,0.,12.0
1981-08-28 15:33:51.800 ,2,1,0.,12.0,0.,12.0,0.,12.0,0.,12.0
1981-08-28 15:34:03.800 ,2,0,0.,12.0,0.,12.0,0.,12.0,0.,12.0
1981-08-28 15:34:15.800 ,2,0,0.,12.0,0.,12.0,0.,12.0,0.,12.0
1981-08-28 15:34:27.800 ,1,1,0.,12.0,0.,12.0,0.,12.0,0.,12.0
1981-08-28 15:34:39.800 ,1,1,0.,12.0,0.,12.0,0.,12.0,0.,12.0
1981-08-28 15:34:51.800 ,1,0,0.,12.0,0.,12.0,0.,12.0,0.,12.0
1981-08-28 15:35:03.800 ,1,0,0.,12.0,0.,12.0,0.,12.0,0.,12.0
1981-08-28 15:35:15.800 ,0,1,0.,12.0,0.,12.0,0.,12.0,0.,12.0
1981-08-28 15:35:27.800 ,0,1,0.,12.0,0.,12.0,0.,12.0,0.,12.0
1981-08-28 15:35:39.800 ,0,0,0.,12.0,0.,12.0,0.,12.0,0.,12.0
1981-08-28 15:35:51.800 ,0,0,0.,12.0,0.,12.0,0.,12.0,0.,12.0
1981-08-28 15:36:03.800 ,0,1,0.,12.0,0.,12.0,0.,12.0,0.,12.0
1981-08-28 15:36:15.800 ,0,1,0.,12.0,0.,12.0,0.,12.0,0.,12.0
1981-08-28 15:36:27.800 ,0,0,0.,12.0,0.,12.0,0.,12.0,0.,12.0
1981-08-28 15:36:39.800 ,0,0,0.,12.0,0.,12.0,0.,12.0,0.,12.0
1981-08-28 15:36:51.800 ,1,1,0.,12.0,0.,12.0,0.,12.0,0.,12.0
1981-08-28 15:37:03.800 ,1,1,0.,12.0,0.,12.0,0.,12.0,0.,12.0
1981-08-28 15:37:15.800 ,1,0,0.,12.0,0.,12.0,0.,12.0,0.,12.0
1981-08-28 15:37:27.800 ,1,0,0.,12.0,0.,12.0,0.,12.0,0.,12.0
1981-08-28 15:37:39.800 ,2,1,0.,12.0,0.,12.0,0.,12.0,0.,12.0
1981-08-28 15:37:51.800 ,2,1,0.,12.0,0.,12.0,0.,12.0,0.,12.0
1981-08-28 15:38:03.800 ,2,0,0.,12.0,0.,12.0,0.,12.0,0.,12.0
1981-08-28 15:38:15.800 ,2,0,0.,12.0,0.,12.0,0.,12.0,0.,12.0
1981-08-28 15:38:27.800 ,3,1,0.,12.0,0.,12.0,0.,12.0,0.,12.0
1981-08-28 15:38:39.800 ,3,1,0.,12.0,0.,12.0,0.,12.0,0.,12.0
1981-08-28 15:38:51.800 ,3,0,0.,12.0,0.,12.0,0.,12.0,0.,12.0
1981-08-28 15:39:03.800 ,3,0,0.,12.0,0.,12.0,0.,12.0,0.,12.0
1981-08-28 15:39:15.800 ,4,1,0.,12.0,0.,12.0,0.,12.0,0.,12.0
1981-08-28 15:39:27.800 ,4,1,0.,12.0,0.,12.0,0.,12.0,0.,12.0
1981-08-28 15:39:39.800 ,4,0,0.,12.0,0.,12.0,0.,12.0,0.,12.0
1981-08-28 15:39:51.800 ,4,0,0.,12.0,0.,12.0,0.,12.0,0.,12.0
1981-08-28 15:40:03.800 ,5,1,0.,12.0,0.,12.0,0.,12.0,0.,12.0
1981-08-28 15:40:15.800 ,5,1,0.,12.0,0.,12.0,0.,12.0,0.,12.0
1981-08-28 15:40:27.800 ,5,0,0.,12.0,0.,12.0,0.,12.0,0.,12.0
1981-08-28 15:40:39.800 ,5,0,0.,12.0,0.,12.0,0.,12.0,0.,12.0
1981-08-28 15:40:51.800 ,6,1,0.,12.0,0.,12.0,0.,12.0,0.,12.0
1981-08-28 15:41:03.800 ,6,1,0.,12.0,0.,12.0,0.,12.0,0.,12.0
1981-08-28 15:41:15.800 ,6,0,0.,12.0,0.,12.0,0.,12.0,0.,12.0
1981-08-28 15:41:27.800 ,6,0,0.,12.0,0.,12.0,0.,12.0,0.,12.0
1981-08-28 15:41:39.800 ,7,1,0.,12.0,0.,12.0,0.,12.0,0.,12.0
1981-08-28 15:41:51.800 ,7,1,0.,12.0,0.,12.0,0.,12.0,0.,12.0
1981-08-28 15:42:03.800 ,7,0,0.,12.0,0.,12.0,0.,12.0,0.,12.0
1981-08-28 15:42:15.800 ,7,0,0.,12.0,0.,12.0,0.,12.0,0.,12.0
1981-08-28 15:42:27.800 ,7,1,0.,12.0,0.,12.0,0.,12.0,0.,12.0
1981-08-28 15:42:39.800 ,7,1,0.,12.0,0.,12.0,0.,12.0,0.,12.0
1981-08-28 15:42:51.800 ,6,1,0.,12.0,0.,12.0,0.,12.0,0.,12.0
1981-08-28 15:43:03.800 ,6,1,0.,12.0,0.,12.0,0.,12.0,0.,12.0
1981-08-28 15:43:15.800 ,5,1,0.,12.0,0.,12.0,0.,12.0,0.,12.0
1981-08-28 15:43:27.800 ,5,1,0.,12.0,0.,12.0,0.,12.0,0.,12.0
1981-08-28 15:43:39.800 ,4,1,0.,12.0,0.,12.0,0.,12.0,0.,12.0
1981-08-28 15:43:51.800 ,4,1,0.,12.0,0.,12.0,0.,12.0,0.,12.0
1981-08-28 15:44:03.800 ,3,1,0.,12.0,0.,12.0,0.,12.0,0.,12.0
1981-08-28 15:44:15.800 ,3,1,0.,12.0,0.,12.0,0.,12.0,0.,12.0
1981-08-28 15:44:27.800 ,2,1,0.,12.0,0.,12.0,0.,12.0,0.,12.0
1981-08-28 15:44:39.800 ,2,1,0.,12.0,0.,12.0,0.,12.0,0.,12.0
1981-08-28 15:44:51.800 ,1,1,0.,12.0,0.,12.0,0.,12.0,0.,12.0
1981-08-28 15:45:03.800 ,1,1,0.,12.0,0.,12.0,0.,12.0,0.,12.0
1981-08-28 15:45:15.800 ,0,1,0.,12.0,0.,12.0,0.,12.0,0.,12.0
1981-08-28 15:45:27.800 ,0,1,0.,12.0,0.,12.0,0.,12.0,0.,12.0
1981-08-28 15:45:39.800 ,0,1,0.,12.0,0.,12.0,0.,12.0,0.,12.0
1981-08-28 15:45:51.800 ,0,1,0.,12.0,0.,12.0,0.,12.0,0.,12.0
1981-08-28 15:46:03.800 ,1,1,0.,12.0,0.,12.0,0.,12.0,0.,12.0
1981-08-28 15:46:15.800 ,1,1,0.,12.0,0.,12.0,0.,12.0,0.,12.0
1981-08-28 15:46:27.800 ,2,1,0.,12.0,0.,12.0,0.,12.0,0.,12.0
1981-08-28 15:46:39.800 ,2,1,0.,12.0,0.,12.0,0.,12.0,0.,12.0
1981-08-28 15:46:51.800 ,3,1,0.,12.0,0.,12.0,0.,12.0,0.,12.0
1981-08-28 15:47:03.800 ,3,1,0.,12.0,0.,12.0,0.,12.0,0.,12.0
1981-08-28 15:47:15.800 ,4,1,0.,12.0,0.,12.0,0.,12.0,0.,12.0
1981-08-28 15:47:27.800 ,4,1,0.,12.0,0.,12.0,0.,12.0,0.,12.0
1981-08-28 15:47:39.800 ,5,1,0.,12.0,0.,12.0,0.,12.0,0.,12.0
1981-08-28 15:47:51.800 ,5,1,0.,12.0,0.,12.0,0.,12.0,0.,12.0
1981-08-28 15:48:03.800 ,6,1,0.,12.0,0.,12.0,0.,12.0,0.,12.0
1981-08-28 15:48:15.800 ,6,1,0.,12.0,0.,12.0,0.,12.0,0.,12.0
1981-08-28 15:48:27.800 ,7,1,0.,12.0,0.,12.0,0.,12.0,0.,12.0
1981-08-28 15:48:39.800 ,7,1,0.,12.0,0.,12.0,0.,12.0,0.,12.0
1981-08-28 15:48:51.800 ,7,1,0.,12.0,0.,12.0,0.,12.0,0.,12.0
1981-08-28 15:49:03.800 ,7,1,0.,12.0,0.,12.0,0.,12.0,0.,12.0
1981-08-28 15:49:15.800 ,7,0,0.,12.0,0.,12.0,0.,12.0,0.,12.0
1981-08-28 15:49:27.800 ,7,0,0.,12.0,0.,12.0,0.,12.0,0.,12.0
1981-08-28 15:49:39.800 ,6,1,0.,12.0,0.,12.0,0.,12.0,0.,12.0
1981-08-28 15:49:51.800 ,6,1,0.,12.0,0.,12.0,0.,12.0,0.,12.0
1981-08-28 15:50:03.800 ,6,0,0.,12.0,0.,12.0,0.,12.0,0.,12.0
1981-08-28 15:50:15.800 ,6,0,0.,12.0,0.,12.0,0.,12.0,0.,12.0
1981-08-28 15:50:27.800 ,5,1,0.,12.0,0.,12.0,0.,12.0,0.,12.0
1981-08-28 15:50:39.800 ,5,1,0.,12.0,0.,12.0,0.,12.0,0.,12.0
1981-08-28 15:50:51.800 ,5,0,0.,12.0,0.,12.0,0.,12.0,0.,12.0
1981-08-28 15:51:03.800 ,5,0,0.,12.0,0.,12.0,0.,12.0,0.,12.0
1981-08-28 15:51:15.800 ,4,1,0.,12.0,0.,12.0,0.,12.0,0.,12.0
1981-08-28 15:51:27.800 ,4,1,0.,12.0,0.,12.0,0.,12.0,0.,12.0
1981-08-28 15:51:39.800 ,4,0,0.,12.0,0.,12.0,0.,12.0,0.,12.0
1981-08-28 15:51:51.800 ,4,0,0.,12.0,0.,12.0,0.,12.0,0.,12.0
1981-08-28 15:52:03.800 ,3,1,0.,12.0,0.,12.0,0.,12.0,0.,12.0
1981-08-28 15:52:15.800 ,3,1,0.,12.0,0.,12.0,0.,12.0,0.,12.0
1981-08-28 15:52:27.800 ,3,0,0.,12.0,0.,12.0,0.,12.0,0.,12.0
1981-08-28 15:52:39.800 ,3,0,0.,12.0,0.,12.0,0.,12.0,0.,12.0
1981-08-28 15:52:51.800 ,2,1,0.,12.0,0.,12.0,0.,12.0,0.,12.0
1981-08-28 15:53:03.800 ,2,1,0.,12.0,0.,12.0,0.,12.0,0.,12.0
1981-08-28 15:53:15.800 ,2,0,0.,12.0,0.,12.0,0.,12.0,0.,12.0
1981-08-28 15:53:27.800 ,2,0,0.,12.0,0.,12.0,0.,12.0,0.,12.0
1981-08-28 15:53:39.790 ,1,1,0.,12.0,0.,12.0,0.,12.0,0.,12.0
1981-08-28 15:53:51.790 ,1,1,0.,12.0,0.,12.0,0.,12.0,0.,12.0
1981-08-28 15:54:03.790 ,1,0,0.,12.0,0.,12.0,0.,12.0,0.,12.0
1981-08-28 15:54:15.790 ,1,0,0.,12.0,0.,12.0,0.,12.0,0.,12.0
1981-08-28 15:54:27.790 ,0,1,0.,12.0,0.,12.0,0.,12.0,0.,12.0
1981-08-28 15:54:39.790 ,0,1,0.,12.0,0.,12.0,0.,12.0,0.,12.0
1981-08-28 15:54:51.790 ,0,0,0.,12.0,0.,12.0,0.,12.0,0.,12.0
1981-08-28 15:55:03.790 ,0,0,0.,12.0,0.,12.0,0.,12.0,0.,12.0
1981-08-28 15:55:15.790 ,0,1,0.,12.0,0.,12.0,0.,12.0,0.,12.0
1981-08-28 15:55:27.790 ,0,1,0.,12.0,0.,12.0,0.,12.0,0.,12.0
1981-08-28 15:55:39.790 ,0,0,0.,12.0,0.,12.0,0.,12.0,0.,12.0
1981-08-28 15:55:51.790 ,0,0,0.,12.0,0.,12.0,0.,12.0,0.,12.0
1981-08-28 15:56:03.790 ,1,1,0.,12.0,0.,12.0,0.,12.0,0.,12.0
1981-08-28 15:56:15.790 ,1,1,0.,12.0,0.,12.0,0.,12.0,0.,12.0
1981-08-28 15:56:27.790 ,1,0,0.,12.0,0.,12.0,0.,12.0,0.,12.0
1981-08-28 15:56:39.790 ,1,0,0.,12.0,0.,12.0,0.,12.0,0.,12.0
1981-08-28 15:56:51.790 ,0,0,0.,12.0,0.,12.0,0.,12.0,0.,12.0
1981-08-28 15:57:03.790 ,0,0,,0,,0,,0,,0
1981-08-28 15:57:15.790 ,0,0,0.,12.0,0.,12.0,0.,12.0,0.,12.0
1981-08-28 15:57:27.790 ,0,0,0.,12.0,0.,12.0,0.,12.0,0.,12.0
1981-08-28 15:57:39.790 ,3,1,0.,12.0,0.,12.0,0.,12.0,0.,12.0
1981-08-28 15:57:51.790 ,3,1,0.,12.0,0.,12.0,0.,12.0,0.,12.0
1981-08-28 15:58:03.790 ,3,0,0.,12.0,0.,12.0,0.,12.0,0.,12.0
1981-08-28 15:58:15.790 ,3,0,0.,12.0,0.,12.0,0.,12.0,0.,12.0
1981-08-28 15:58:27.790 ,4,1,0.,12.0,0.,12.0,0.,12.0,0.,12.0
1981-08-28 15:58:39.790 ,4,1,0.,12.0,0.,12.0,0.,12.0,0.,12.0
1981-08-28 15:58:51.790 ,4,0,0.,12.0,0.,12.0,0.,12.0,0.,12.0
1981-08-28 15:59:03.790 ,4,0,,0,,0,,0,,0
1981-08-28 15:59:15.790 ,5,1,0.,12.0,0.,12.0,0.,12.0,0.,12.0
1981-08-28 15:59:27.790 ,5,1,0.,12.0,0.,12.0,0.,12.0,0.,12.0
1981-08-28 15:59:39.790 ,0,0,0.,12.0,0.,12.0,0.,12.0,0.,12.0
1981-08-28 15:59:51.790 ,0,0,,0,,0,,0,,0
1981-08-28 16:04:19.990 ,0,0,,0,,0,,0,,0
1981-08-28 16:04:31.990 ,0,0,0.,12.0,0.,12.0,0.,12.0,0.,12.0
1981-08-28 16:04:27.790 ,0,1,0.,12.0,0.,12.0,0.,12.0,0.,12.0
1981-08-28 16:04:39.790 ,0,1,0.,12.0,0.,12.0,0.,12.0,0.,12.0
1981-08-28 16:04:51.790 ,0,1,0.,12.0,0.,12.0,0.,12.0,0.,12.0
1981-08-28 16:05:03.790 ,0,1,0.,12.0,0.,12.0,0.,12.0,0.,12.0
1981-08-28 16:05:15.790 ,1,1,0.,12.0,0.,12.0,0.,12.0,0.,12.0
1981-08-28 16:05:27.790 ,1,1,0.,12.0,0.,12.0,0.,12.0,0.,12.0
1981-08-28 16:05:39.790 ,2,1,0.,12.0,0.,12.0,0.,12.0,0.,12.0
1981-08-28 16:05:51.790 ,2,1,0.,12.0,0.,12.0,0.,12.0,0.,12.0
1981-08-28 16:06:03.790 ,0,0,0.,12.0,0.,12.0,0.,12.0,0.,12.0
1981-08-28 16:06:15.790 ,0,0,,0,,0,,0,,0
1981-08-28 16:06:16.990 ,3,1,,0,,0,,0,,0
1981-08-28 16:06:28.990 ,3,1,0.,12.0,0.,12.0,0.,12.0,0.,12.0
1981-08-28 16:06:27.790 ,4,1,0.,12.0,0.,12.0,0.,12.0,0.,12.0
1981-08-28 16:06:39.790 ,4,1,0.,12.0,0.,12.0,0.,12.0,0.,12.0
1981-08-28 16:06:51.790 ,5,1,0.,12.0,0.,12.0,0.,12.0,0.,12.0
1981-08-28 16:07:03.790 ,5,1,0.,12.0,0.,12.0,0.,12.0,0.,12.0
1981-08-28 16:07:15.790 ,6,1,0.,12.0,0.,12.0,0.,12.0,0.,12.0
1981-08-28 16:07:27.790 ,6,1,0.,12.0,0.,12.0,0.,12.0,0.,12.0
1981-08-28 16:07:39.790 ,7,1,0.,12.0,0.,12.0,0.,12.0,0.,12.0
1981-08-28 16:07:51.790 ,7,1,0.,12.0,0.,12.0,0.,12.0,0.,12.0
1981-08-28 16:08:03.790 ,7,1,0.,12.0,0.,12.0,0.,12.0,0.,12.0
1981-08-28 16:08:15.790 ,7,1,0.,12.0,0.,12.0,0.,12.0,0.,12.0
1981-08-28 16:08:27.790 ,7,0,0.,12.0,0.,12.0,0.,12.0,0.,12.0
1981-08-28 16:08:39.790 ,7,0,0.,12.0,0.,12.0,0.,12.0,0.,12.0
1981-08-28 16:08:51.790 ,6,1,0.,12.0,0.,12.0,0.,12.0,0.,12.0
1981-08-28 16:09:03.790 ,6,1,0.,12.0,0.,12.0,0.,12.0,0.,12.0
1981-08-28 16:09:15.790 ,6,0,0.,12.0,0.,12.0,0.,12.0,0.,12.0
1981-08-28 16:09:27.790 ,6,0,0.,12.0,0.,12.0,0.,12.0,0.,12.0
1981-08-28 16:09:39.790 ,5,1,0.,12.0,0.,12.0,0.,12.0,0.,12.0
1981-08-28 16:09:51.790 ,5,1,0.,12.0,0.,12.0,0.,12.0,0.,12.0
1981-08-28 16:10:03.790 ,5,0,0.,12.0,0.,12.0,0.,12.0,0.,12.0
1981-08-28 16:10:15.790 ,5,0,0.,12.0,0.,12.0,0.,12.0,0.,12.0
1981-08-28 16:10:27.790 ,4,1,0.,12.0,0.,12.0,0.,12.0,0.,12.0
1981-08-28 16:10:39.790 ,4,1,0.,12.0,0.,12.0,0.,12.0,0.,12.0
1981-08-28 16:10:51.790 ,4,0,0.,12.0,0.,12.0,0.,12.0,0.,12.0
1981-08-28 16:11:03.790 ,4,0,0.,12.0,0.,12.0,0.,12.0,0.,12.0
1981-08-28 16:11:15.790 ,3,1,0.,12.0,0.,12.0,0.,12.0,0.,12.0
1981-08-28 16:11:27.790 ,3,1,0.,12.0,0.,12.0,0.,12.0,0.,12.0
1981-08-28 16:11:39.790 ,3,0,0.,12.0,0.,12.0,0.,12.0,0.,12.0
1981-08-28 16:11:51.790 ,3,0,0.,12.0,0.,12.0,0.,12.0,0.,12.0
1981-08-28 16:12:03.790 ,2,1,0.,12.0,0.,12.0,0.,12.0,0.,12.0
1981-08-28 16:12:15.790 ,2,1,0.,12.0,0.,12.0,0.,12.0,0.,12.0
1981-08-28 16:12:27.790 ,2,0,0.,12.0,0.,12.0,0.,12.0,0.,12.0
1981-08-28 16:12:39.790 ,2,0,0.,12.0,0.,12.0,0.,12.0,0.,12.0
1981-08-28 16:12:51.790 ,1,1,0.,12.0,0.,12.0,0.,12.0,0.,12.0
1981-08-28 16:13:03.790 ,1,1,0.,12.0,0.,12.0,0.,12.0,0.,12.0
1981-08-28 16:13:15.790 ,1,0,0.,12.0,0.,12.0,0.,12.0,0.,12.0
1981-08-28 16:13:27.790 ,1,0,0.,12.0,0.,12.0,0.,12.0,0.,12.0
1981-08-28 16:13:39.790 ,0,1,0.,12.0,0.,12.0,0.,12.0,0.,12.0
1981-08-28 16:13:51.790 ,0,1,0.,12.0,0.,12.0,0.,12.0,0.,12.0
1981-08-28 16:14:03.790 ,0,0,0.,12.0,0.,12.0,0.,12.0,0.,12.0
1981-08-28 16:14:15.790 ,0,0,0.,12.0,0.,12.0,0.,12.0,0.,12.0
1981-08-28 16:14:27.790 ,0,1,0.,12.0,0.,12.0,0.,12.0,0.,12.0
1981-08-28 16:14:39.790 ,0,1,0.,12.0,0.,12.0,0.,12.0,0.,12.0
1981-08-28 16:14:51.790 ,0,0,0.,12.0,0.,12.0,0.,12.0,0.,12.0
1981-08-28 16:15:03.790 ,0,0,0.,12.0,0.,12.0,0.,12.0,0.,12.0
1981-08-28 16:15:15.790 ,1,1,0.,12.0,0.,12.0,0.,12.0,0.,12.0
1981-08-28 16:15:27.790 ,1,1,0.,12.0,0.,12.0,0.,12.0,0.,12.0
1981-08-28 16:15:39.790 ,1,0,0.,12.0,0.,12.0,0.,12.0,0.,12.0
1981-08-28 16:15:51.790 ,1,0,0.,12.0,0.,12.0,0.,12.0,0.,12.0
1981-08-28 16:16:03.790 ,2,1,0.,12.0,0.,12.0,0.,12.0,0.,12.0
1981-08-28 16:16:15.790 ,2,1,0.,12.0,0.,12.0,0.,12.0,0.,12.0
1981-08-28 16:16:27.790 ,2,0,0.,12.0,0.,12.0,0.,12.0,0.,12.0
1981-08-28 16:16:39.790 ,2,0,0.,12.0,0.,12.0,0.,12.0,0.,12.0
1981-08-28 16:16:51.790 ,3,1,0.,12.0,0.,12.0,0.,12.0,0.,12.0
1981-08-28 16:17:03.790 ,3,1,0.,12.0,0.,12.0,0.,12.0,0.,12.0
1981-08-28 16:17:15.790 ,3,0,0.,12.0,0.,12.0,0.,12.0,0.,12.0
1981-08-28 16:17:27.790 ,3,0,0.,12.0,0.,12.0,0.,12.0,0.,12.0
1981-08-28 16:17:39.790 ,4,1,0.,12.0,0.,12.0,0.,12.0,0.,12.0
1981-08-28 16:17:51.790 ,4,1,0.,12.0,0.,12.0,0.,12.0,0.,12.0
1981-08-28 16:18:03.790 ,4,0,0.,12.0,0.,12.0,0.,12.0,0.,12.0
1981-08-28 16:18:15.790 ,4,0,0.,12.0,0.,12.0,0.,12.0,0.,12.0
1981-08-28 16:18:27.790 ,5,1,0.,12.0,0.,12.0,0.,12.0,0.,12.0
1981-08-28 16:18:39.790 ,5,1,0.,12.0,0.,12.0,0.,12.0,0.,12.0
1981-08-28 16:18:51.790 ,5,0,0.,12.0,0.,12.0,0.,12.0,0.,12.0
1981-08-28 16:19:03.790 ,5,0,0.,12.0,0.,12.0,0.,12.0,0.,12.0
1981-08-28 16:19:15.790 ,6,1,0.,12.0,0.,12.0,0.,12.0,0.,12.0
1981-08-28 16:19:27.790 ,6,1,0.,12.0,0.,12.0,0.,12.0,0.,12.0
1981-08-28 16:19:39.790 ,6,0,0.,12.0,0.,12.0,0.,12.0,0.,12.0
1981-08-28 16:19:51.790 ,6,0,0.,12.0,0.,12.0,0.,12.0,0.,12.0
1981-08-28 16:20:03.790 ,7,1,0.,12.0,0.,12.0,0.,12.0,0.,12.0
1981-08-28 16:20:15.790 ,7,1,0.,12.0,0.,12.0,0.,12.0,0.,12.0
1981-08-28 16:20:27.790 ,7,0,0.,12.0,0.,12.0,0.,12.0,0.,12.0
1981-08-28 16:20:39.790 ,7,0,0.,12.0,0.,12.0,0.,12.0,0.,12.0
1981-08-28 16:20:51.790 ,7,1,0.,12.0,0.,12.0,0.,12.0,0.,12.0
1981-08-28 16:21:03.790 ,7,1,0.,12.0,0.,12.0,0.,12.0,0.,12.0
1981-08-28 16:21:15.790 ,6,1,0.,12.0,0.,12.0,0.,12.0,0.,12.0
1981-08-28 16:21:27.790 ,6,1,0.,12.0,0.,12.0,0.,12.0,0.,12.0
1981-08-28 16:21:39.790 ,5,1,0.,12.0,0.,12.0,0.,12.0,0.,12.0
1981-08-28 16:21:51.790 ,5,1,0.,12.0,0.,12.0,0.,12.0,0.,12.0
1981-08-28 16:22:03.790 ,4,1,0.,12.0,0.,12.0,0.,12.0,0.,12.0
1981-08-28 16:22:15.790 ,4,1,0.,12.0,0.,12.0,0.,12.0,0.,12.0